www.pogodaiklimat.ru

Погода и климат >> Архив погоды >> Россия >> Якутия >> Туой-Хая


ПОГОДА в Туой-Хае

  • Прогноз погоды в Туой-Хае
  • Монитор погоды в Туой-Хае

АРХИВ ПОГОДЫ в Туой-Хае

Время (UTC), дата Ветер
(напр.,м/с)
 
Видим.   Явления Облачность Т
(С)
Тd
(С)
f
(%)
Тe
(С)
Тes
(С)
Комфортность P
(гПа)
Po
(гПа)
Тmin
(С)
Tmax
(С)
R
(мм)
R24
(мм)
S
(см)
03 10.07 штиль 0 10 км дым ясно +23.9 +14.1 54 +26 +42 жарко 1007.0 977.6
06 10.07 штиль 0 10 км дым 4/4 600 м
[Cb cap]
+27.0 +12.4 40 +28 +38 жарко 1006.8 977.7
09 10.07 штиль 0 10 км дым 4/4 600 м
[]
+27.2 +15.0 47 +30 +34 душно 1006.8 977.7
12 10.07 штиль 0 10 км дым 1/1 600 м
[Cb cap]
+25.1 +17.1 61 +29 +30 душно 1007.4 978.1 +28.5
15 10.07 штиль 0 20 км дым ясно +19.9 +15.3 75 +22 +22 комфорт 1008.9 979.0
18 10.07 штиль 0 20 км дым ясно +18.4 +15.2 82 +19 +19 1009.7 979.6
21 10.07 штиль 0 10 км дым ясно +17.0 +15.6 91 +17 +18 1011.1 980.9
00 11.07 штиль 0 10 км дым ясно +20.2 +16.9 81 +23 +30 комфорт 1011.3 981.4 +16.6
03 11.07 Ю 1 10 км дым 8/0
[Ci fib]
+25.3 +18.9 68 +30 +42 душно 1010.3 981.0
06 11.07 Ю 1 50 км 8/3 600 м
[Cb cap Ci fib]
+28.0 +15.7 47 +31 +39 душно 1009.6 980.5
09 11.07 Ю 1 50 км 10/3 600 м
[Cb cap As trans Ci fib]
+27.2 +15.6 49 +30 +32 душно 1008.5 979.3
12 11.07 Ю 1 50 км 10/1 600 м
[Cb cap Ci fib]
+25.2 +15.3 54 +28 +29 жарко 1008.0 978.6 +29.5
15 11.07 штиль 0 50 км 3/1 1000 м
[Sc Ci sp]
+21.0 +17.9 82 +25 +25 комфорт 1008.5 978.7
18 11.07 штиль 0 50 км 4/4 1000 м
[Sc]
+19.3 +17.3 88 +21 +21 комфорт 1008.9 979.0
21 11.07 Ю 1 50 км 9/8 1000 м
[Sc Ci sp]
+18.7 +14.9 79 +21 +21 комфорт 1008.2 978.3
00 12.07 З 2 20 км дым 10/4 600 м
[Frnb As op]
+19.2 +15.3 78 +21 +22 комфорт 1008.3 978.4 +18.5
03 12.07 З 1 10 км 10/10 600 м
[]
+18.1 +16.3 89 +19 +19 1009.0 978.9
06 12.07 З 1 10 км дым {дождь} 10/8 600 м
[Cb cap As op]
+18.9 +16.6 87 +21 +22 комфорт 1009.2 979.2
09 12.07 З 1 50 км 9/9 600 м
[Cb cap]
+20.2 +14.9 72 +24 +24 комфорт 1009.3 979.4
12 12.07 З 3 50 км 9/8 600 м
[Cb cap Ci sp]
+18.9 +12.9 68 +20 +20 1010.3 980.3 +21.7 2
15 12.07 СЗ 2 50 км 8/8 600 м
[Cb cap]
+16.8 +14.0 84 +17 +17 1010.9 980.7
18 12.07 СЗ 2 50 км 8/8 600 м
[Cb cap]
+15.2 +13.6 90 +15 +15 1011.3 980.9
21 12.07 С 2 50 км 10/0
[As op]
+16.2 +14.8 91 +16 +16 1011.2 980.9
00 13.07 С 1 50 км 10/10 600 м
[Cb cap]
+16.6 +14.7 89 +17 +17 1011.9 981.5 +15.1
03 13.07 С 1 50 км 10/10 600 м
[Cb cap]
+16.4 +14.7 90 +17 +17 1012.0 981.6
06 13.07 С 1 50 км 10/10 600 м
[Cb cap]
+18.2 +15.0 82 +20 +20 1011.2 981.6
09 13.07 С 1 50 км 9/9 600 м
[Cb cap]
+19.4 +15.2 77 +22 +23 комфорт 1010.9 980.9
12 13.07 штиль 0 50 км 8/5 1000 м
[Sc Ac trans]
+18.1 +16.4 90 +18 +19 1010.7 980.6 +20.6
15 13.07 штиль 0 50 км 9/9 1000 м
[Sc]
+17.6 +15.0 85 +18 +18 1010.4 980.3
18 13.07 штиль 0 50 км 8/8 1000 м
[Sc]
+16.3 +13.3 82 +16 +16 1010.8 980.5
21 13.07 штиль 0 50 км 8/3 1000 м
[Sc Ci sp]
+15.3 +14.4 94 +15 +15 1009.6 979.2
00 14.07 штиль 0 50 км 6/4 1000 м
[Sc Ci sp]
+18.6 +14.8 79 +19 +23 1009.5 979.5 +15.1
03 14.07 штиль 0 50 км 1/0
[Ci fib]
+22.0 +15.7 67 +26 +41 душно 1009.2 979.8
06 14.07 С 1 50 км 3/1 600 м
[Cb cap Ci fib]
+25.1 +16.3 58 +28 +40 жарко 1008.8 979.4
09 14.07 штиль 0 50 км 3/1 600 м
[Cb cap Ci fib]
+26.7 +19.1 63 +32 +38 очень
душно
1007.9 978.7
12 14.07 штиль 0 50 км 8/8 600 м
[Cb cap]
+23.9 +16.0 61 +27 +27 жарко 1008.8 979.3 +27.0
15 14.07 штиль 0 50 км 8/8 1000 м
[Sc]
+19.6 +15.7 78 +21 +21 комфорт 1010.2 980.3
18 14.07 штиль 0 50 км 8/8 1000 м
[Sc]
+17.9 +15.3 85 +18 +18 1011.1 981.0
21 14.07 В 2 50 км 9/8 1000 м
[Sc As trans]
+18.2 +12.9 71 +19 +19 1011.4 981.3
00 15.07 В 2 20 км слаб. дождь 10/8 600 м
[Cb cap As op]
+18.1 +15.9 87 +19 +19 1012.8 982.6 +16.6 0.4
03 15.07 СВ 1 50 км {дождь} 10/6 600 м
[Cb cap As op]
+20.4 +16.4 78 +25 +26 комфорт 1013.0 983.1
06 15.07 В 3 10 км дым {дождь} 9/9 600 м
[Cb cap]
+23.7 +15.4 60 +27 +28 жарко 1012.8 983.2
09 15.07 В 2 10 км дым 8/6 600 м
[Cb cap Ac trans]
+23.3 +16.6 66 +28 +30 душно 1012.6 982.9
12 15.07 В 2 10 км дым 3/0
[Ac trans]
+22.7 +15.9 65 +27 +27 душно 1012.8 983.1 +25.1 0.3
15 15.07 штиль 0 20 км дым 9/9 1000 м
[Sc]
+19.1 +15.7 81 +20 +20 1014.5 984.4
18 15.07 штиль 0 20 км дым 8/8 1000 м
[Sc]
+17.3 +15.2 87 +17 +17 1015.9 985.5
21 15.07 штиль 0 20 км дым ясно +16.2 +14.6 90 +16 +17 1018.7 985.1
00 16.07 В 1 50 км ясно +19.5 +14.7 74 +22 +28 комфорт 1016.0 985.8 +16.0
03 16.07 В 1 50 км ясно +24.0 +11.7 46 +26 +39 жарко 1015.5 985.8
06 16.07 В 1 50 км 1/0
[Ci fib]
+25.9 +12.7 44 +28 +41 жарко 1014.5 985.0
09 16.07 СВ 1 50 км 1/0
[Ci fib]
+26.2 +17.5 59 +30 +37 душно 1013.3 983.9
12 16.07 СВ 1 50 км 1/0
[Ci fib]
+24.1 +13.9 53 +26 +27 жарко 1012.8 983.2 +26.9
15 16.07 штиль 0 50 км ясно +17.7 +10.2 61 +18 +18 1013.7 983.4
18 16.07 штиль 0 50 км ясно +16.3 +10.7 69 +16 +16 1014.1 983.7
21 16.07 штиль 0 50 км ясно +14.2 +13.5 96 +14 +14 1013.4 982.8

 

Местоположение метеостанции Туой-Хая (Якутия, Россия): широта 62.53 долгота 111.20 высота над уровнем моря 260 м.

В архиве по умолчанию представлена погода в Туой-Хае за последнюю неделю. Архивные данные за месяц целиком и за предыдущие месяцы, начиная с января 2011 года, Вы можете получить, выбрав интересующий диапазон дат из раскрывающегося списка и нажав кнопку "Ввод!".


*Определитесь, кто Вы:
робот инопланетянин человек

Внимание! Время в таблицах - всемирное. Для получения местного времени необходимо прибавить поправку, которая равна 9 ч.

Смотрите также архив погоды в соседних городах и на ближайших метеорологических станциях:

Погода в Чернышевском (Якутия, Россия) (83 км)
Погода в Мирном (Якутия, Россия) (133 км)
Погода в Дорожном (Якутия, Россия) (204 км)
Погода в Ербогачене (Иркутская область, Россия) (218 км)
Погода в Хабардино (Якутия, Россия) (239 км)
Погода в Комаке (Якутия, Россия) (253 км)
Погода в Крестяхе (Якутия, Россия) (254 км)
Погода в Ленске (Якутия, Россия) (277 км)
Погода в Преображенке (Иркутская область, Россия) (324 км)
Погода в Сунтаре (Якутия, Россия) (333 км)

Пояснения к столбцам:

Ветер - указаны скорость ветра в м/с - средняя за 10 мин, порывы в срок и между сроками (в фигурных скобках) и направление, откуда дует ветер: С - северный, СВ - северо-восточный, В - восточный, ЮВ - юго-восточный, Ю - южный, ЮЗ - юго-западный, З - западный, СЗ - северо-западный.
Видимость - горизонтальная дальность видимости в метрах или километрах. При видимости от 1 до 10 км при отсутствии осадков обычно наблюдается дымка, при ухудшении видимости до 1 км и менее - туман. В сухую погоду видимость может ухудшаться дымом, пылью или мглою.
Явления - указаны атмосферные явления, наблюдавшиеся в срок или в последний час перед сроком; фигурными скобками обозначены явления, наблюдавшиеся между сроками (за 1-3 часа до срока); квадратными скобками обозначены град или гололедные отложения с указанием их диаметра в мм.
Облачность - указаны через наклонную черту общая и нижняя облачность в баллах и высота нижней границы облаков в метрах; квадратными скобками обозначены формы облаков: Ci - перистые, Cs - перисто-слоистые, Cc - перисто-кучевые, Ac - высококучевые, As - высокослоистые, Sc - слоисто-кучевые, Ns - слоисто-дождевые, Cu - кучевые, Cb - кучево-дождевые. Подробнее классификацию облаков см. в Атласе облаков (PDF).
T - Температура воздуха - температура, измеренная на высоте 2 м над землей.
Td - Температура точки росы - температура, при понижении до которой содержащийся в воздухе водяной пар достигнет насыщения.
f - Относительная влажность воздуха - влажноcть воздуха, измеренная на высоте 2 м над землей.
Te - Эффективная температура - температура, которую ощущает одетый по сезону человек в тени. Характеристика душности погоды. При расчете учитывается влияние влажности воздуха и скорости ветра на теплоощущения человека.
Tes - Эффективная температура на солнце - температура, которую ощущает человек, с поправкой на солнечный нагрев. Характеристика знойности погоды. Зависит от высоты солнца над горизонтом, облачности и скорости ветра. Ночью, в пасмурную погоду, а также при ветре 12 м/с и более поправка равна нулю.
P - Атмосферное давление - приведенное к уровню моря атмосферное давление.
Po - Атмосферное давление - измеренное на уровне метеостанции атмосферное давление.
Tmin - Минимальная температура - минимум температуры воздуха на высоте 2 м над землей.
Tmax - Максимальная температура - максимум температуры воздуха на высоте 2 м над землей.
R - Количество осадков - Количество выпавших осадков за период времени, мм. При наведении курсора мыши на число - период времени, за который выпало указанное количество осадков.
R24 - Количество осадков - Количество выпавших осадков за 24 часа, мм.
S - Снежный покров - Высота снежного покрова, см. При наведении курсора мыши на число - состояние снежного покрова и степень покрытия местности в баллах.